Delta, CO

8:54 AM MDT on August 23, 2017 (GMT -0600)
Delta

Weather History for KAJZ - May, 2012

Change the Weather History Date:

Tuesday, May 1, 2012

  Actual Average (KMTJ) Record (KMTJ)
Temperature  
Mean Temperature 64 °F -  
Max Temperature 76 °F 66 °F 82 °F (2001)
Min Temperature 51 °F 37 °F 24 °F (2014)
Degree Days  
Heating Degree Days 2    
Growing Degree Days 14 (Base 50)    
Moisture  
Dew Point 22 °F    
Average Humidity 20    
Maximum Humidity 35    
Minimum Humidity 14    
Precipitation  
Precipitation 0.00 in - - ()
Sea Level Pressure  
Sea Level Pressure 29.82 in    
Wind  
Wind Speed 7 mph ()    
Max Wind Speed 18 mph    
Max Gust Speed 32 mph    
Visibility 10.0 miles    
Events      
Averages and records for this station are not official NWS values.
T = Trace of Precipitation, MM = Missing Value Source: Averaged Metar Reports

Daily Weather History Graph

Daily Weather History Graph

Search for Another Location

Airport or City:

Trip Planner

Search our weather history database for the weather conditions in past years. The results will help you decide how hot, cold, wet, or windy it might be!

Date:

Astronomy

May. 01, 2012 Rise Set
Actual Time 6:13 AM MDT 8:05 PM MDT
Civil Twilight 5:45 AM MDT 8:33 PM MDT
Nautical Twilight 5:10 AM MDT 9:09 PM MDT
Astronomical Twilight 4:32 AM MDT 9:46 PM MDT
Moon 3:14 PM MDT (5/1) 3:09 AM MDT (5/1)
Length of Visible Light 14h 48m
Length of Day
13h 51m
Waxing Gibbous, 74% of the Moon is Illuminated
May 1
Waxing Gibbous
May 5
Full
May 12
Last Quarter
May 20
New
May 28
First Quarter

Hourly Weather History & Observations

Time (MDT) Temp. Dew Point Humidity Pressure Visibility Wind Dir Wind Speed Gust Speed Precip Events Conditions
12:15 AM 58.1 °F 20.3 °F 23% 29.88 in 10.0 mi NNE 8.1 mph - N/A   Clear
12:35 AM 56.5 °F 21.4 °F 26% 29.88 in 10.0 mi North 10.4 mph - N/A   Clear
12:55 AM 57.6 °F 19.2 °F 23% 29.88 in 10.0 mi North 11.5 mph - N/A   Clear
1:15 AM 57.2 °F 20.1 °F 24% 29.87 in 10.0 mi NNE 11.5 mph - N/A   Clear
1:35 AM 57.4 °F 18.3 °F 22% 29.87 in 10.0 mi NNE 10.4 mph - N/A   Clear
1:55 AM 56.8 °F 19.8 °F 24% 29.86 in 10.0 mi North 8.1 mph - N/A   Clear
2:15 AM 56.7 °F 17.6 °F 22% 29.85 in 10.0 mi NNE 10.4 mph - N/A   Clear
2:35 AM 57.9 °F 15.1 °F 19% 29.85 in 10.0 mi NE 6.9 mph - N/A   Clear
2:55 AM 55.8 °F 12.7 °F 18% 29.85 in 10.0 mi East 6.9 mph - N/A   Clear
3:15 AM 53.8 °F 16.3 °F 23% 29.85 in 10.0 mi ENE 10.4 mph - N/A   Clear
3:35 AM 53.6 °F 16.5 °F 23% 29.84 in 10.0 mi NE 5.8 mph - N/A   Clear
3:55 AM 53.6 °F 16.5 °F 23% 29.84 in 10.0 mi NE 6.9 mph - N/A   Clear
4:15 AM 51.6 °F 16.3 °F 25% 29.84 in 10.0 mi East 6.9 mph - N/A   Clear
4:35 AM 51.8 °F 18.7 °F 27% 29.84 in 10.0 mi ENE 11.5 mph - N/A   Clear
4:55 AM 52.7 °F 18.5 °F 26% 29.84 in 10.0 mi ENE 9.2 mph - N/A   Clear
5:15 AM 52.7 °F 18.9 °F 26% 29.84 in 10.0 mi NE 8.1 mph - N/A   Clear
5:35 AM 52.2 °F 19.4 °F 28% 29.84 in 10.0 mi East 9.2 mph - N/A   Clear
5:55 AM 52.2 °F 19.8 °F 28% 29.84 in 10.0 mi ENE 8.1 mph - N/A   Clear
6:15 AM 52.5 °F 19.2 °F 27% 29.85 in 10.0 mi ENE 6.9 mph - N/A   Clear
6:35 AM 53.1 °F 18.0 °F 25% 29.85 in 10.0 mi East 8.1 mph - N/A   Clear
6:55 AM 53.8 °F 21.0 °F 28% 29.85 in 10.0 mi Calm Calm - N/A   Clear
7:15 AM 54.7 °F 21.0 °F 27% 29.85 in 10.0 mi NE 9.2 mph - N/A   Clear
7:35 AM 58.3 °F 18.5 °F 21% 29.85 in 10.0 mi NNE 4.6 mph - N/A   Clear
7:55 AM 58.5 °F 20.3 °F 23% 29.85 in 10.0 mi ENE 5.8 mph - N/A   Clear
8:35 AM 59.2 °F 25.2 °F 27% 29.85 in 10.0 mi ENE 4.6 mph - N/A   Overcast
8:55 AM 59.7 °F 25.2 °F 27% 29.85 in 10.0 mi NE 6.9 mph - N/A   Overcast
9:15 AM 62.8 °F 23.4 °F 22% 29.87 in 10.0 mi NE 3.5 mph - N/A   Overcast
9:35 AM 64.2 °F 23.4 °F 21% 29.87 in 10.0 mi North 3.5 mph - N/A   Overcast
9:55 AM 64.4 °F 21.2 °F 19% 29.87 in 10.0 mi Calm Calm - N/A   Overcast
10:35 AM 67.1 °F 23.9 °F 20% 29.87 in 10.0 mi East 3.5 mph - N/A   Scattered Clouds
10:55 AM 68.0 °F 21.2 °F 17% 29.87 in 10.0 mi ENE 3.5 mph - N/A   Clear
11:15 AM 69.3 °F 18.5 °F 14% 29.87 in 10.0 mi Calm Calm - N/A   Mostly Cloudy
11:35 AM 69.1 °F 18.1 °F 14% 29.87 in 10.0 mi ESE 5.8 mph - N/A   Overcast
11:55 AM 68.4 °F 19.4 °F 16% 29.86 in 10.0 mi ESE 8.1 mph - N/A   Overcast
12:15 PM 69.1 °F 18.3 °F 14% 29.86 in 10.0 mi East 5.8 mph - N/A   Overcast
12:35 PM 69.3 °F 18.3 °F 14% 29.85 in 10.0 mi ENE 3.5 mph - N/A   Overcast
12:55 PM 71.2 °F 19.2 °F 14% 29.85 in 10.0 mi ESE 3.5 mph - N/A   Mostly Cloudy
1:15 PM 71.8 °F 19.2 °F 14% 29.84 in 10.0 mi ESE 4.6 mph - N/A   Mostly Cloudy
1:35 PM 72.3 °F 19.9 °F 14% 29.84 in 10.0 mi NNE 4.6 mph - N/A   Mostly Cloudy
2:15 PM 74.5 °F 23.2 °F 15% 29.83 in 10.0 mi Calm Calm - N/A   Overcast
2:35 PM 74.1 °F 23.4 °F 15% 29.81 in 10.0 mi SE 5.8 mph - N/A   Overcast
2:55 PM 73.6 °F 24.6 °F 16% 29.81 in 10.0 mi Calm Calm - N/A   Overcast
3:15 PM 74.3 °F 24.8 °F 16% 29.80 in 10.0 mi Calm Calm - N/A   Overcast
3:35 PM 76.3 °F 24.3 °F 14% 29.79 in 10.0 mi NNW 3.5 mph - N/A   Overcast
3:55 PM 75.4 °F 24.6 °F 15% 29.79 in 10.0 mi North 3.5 mph - N/A   Overcast
4:15 PM 74.3 °F 24.6 °F 16% 29.79 in 10.0 mi ENE 4.6 mph - N/A   Overcast
4:35 PM 76.8 °F 24.4 °F 14% 29.77 in 10.0 mi Calm Calm - N/A   Mostly Cloudy
4:55 PM 75.0 °F 25.3 °F 16% 29.76 in 10.0 mi ESE 6.9 mph - N/A   Mostly Cloudy
5:15 PM 74.3 °F 26.4 °F 17% 29.76 in 10.0 mi South 11.5 mph - N/A   Overcast
5:35 PM 76.1 °F 24.4 °F 15% 29.75 in 10.0 mi SW 11.5 mph 17.3 mph N/A   Overcast
5:55 PM 75.9 °F 25.5 °F 15% 29.75 in 10.0 mi SW 9.2 mph - N/A   Overcast
6:15 PM 76.1 °F 25.7 °F 15% 29.75 in 10.0 mi SW 11.5 mph 21.9 mph N/A   Overcast
6:35 PM 76.8 °F 25.0 °F 15% 29.75 in 10.0 mi SW 18.4 mph 32.2 mph N/A   Mostly Cloudy
6:55 PM 75.0 °F 25.5 °F 16% 29.75 in 10.0 mi SW 16.1 mph 21.9 mph N/A   Clear
7:15 PM 75.2 °F 25.3 °F 16% 29.75 in 10.0 mi SW 18.4 mph 25.3 mph N/A   Scattered Clouds
7:35 PM 73.6 °F 25.0 °F 16% 29.75 in 10.0 mi SSW 12.7 mph - N/A   Scattered Clouds
7:55 PM 72.9 °F 24.8 °F 17% 29.76 in 10.0 mi SW 15.0 mph 18.4 mph N/A   Mostly Cloudy
8:15 PM 72.5 °F 23.9 °F 16% 29.76 in 10.0 mi SSW 12.7 mph 18.4 mph N/A   Mostly Cloudy
8:35 PM 71.6 °F 23.9 °F 17% 29.77 in 10.0 mi SW 10.4 mph - N/A   Scattered Clouds
8:55 PM 69.8 °F 24.6 °F 18% 29.77 in 10.0 mi South 5.8 mph - N/A   Mostly Cloudy
9:15 PM 68.0 °F 24.8 °F 20% 29.78 in 10.0 mi Calm Calm - N/A   Mostly Cloudy
9:35 PM 65.8 °F 24.6 °F 21% 29.80 in 10.0 mi West 3.5 mph - N/A   Mostly Cloudy
9:55 PM 66.4 °F 23.7 °F 20% 29.80 in 10.0 mi SSE 3.5 mph - N/A   Mostly Cloudy
10:35 PM 65.3 °F 23.0 °F 20% 29.80 in 10.0 mi East 3.5 mph - N/A   Clear
10:55 PM 59.0 °F 28.4 °F 31% 29.81 in 10.0 mi ENE 4.6 mph - N/A   Scattered Clouds
11:15 PM 58.1 °F 28.4 °F 32% 29.81 in 10.0 mi NNE 8.1 mph - N/A   Scattered Clouds
11:35 PM 57.4 °F 29.8 °F 35% 29.81 in 10.0 mi NNE 9.2 mph - N/A   Clear
11:55 PM 58.1 °F 27.9 °F 32% 29.81 in 10.0 mi NNE 9.2 mph - N/A   Scattered Clouds